Location: *
(46.0770°N, 1.6444°E)
Time: 00:19:55
(UTC+00:00)

SJ-6B - Pass Details

Date: 16 September 2019
Orbit: 509 x 583 km, 97.6° (Epoch: 21 October)

Event Time Altitude Azimuth Distance (km) Brightness Sun altitude
Exits shadow 18:43:04 - 133° (SE) 2,267 5.4 -7.6°
Reaches altitude 10° 18:44:03 10° 127° (SE) 1,900 5.0 -7.8°
Maximum altitude 18:47:36 29° 68° (ENE) 1,092 3.9 -8.4°
Drops below altitude 10° 18:51:09 10° 8° (N) 1,899 5.6 -9.0°
Sets 18:53:30 0° 358° (N) 2,794 6.6 -9.4°
